Flag for Germany Weather past 2 weeks in Landshut, Bavaria, Germany

Now
49 °F

Passing clouds.


Feels Like: 49 °F
Forecast: 38 / 60 °F
Wind: 1 mph from West

Location: Muenchen Flughafen

Current Time: Apr 21, 2015 at 9:45:34 AM

Latest Report: Apr 21, 2015 at 9:00 AM


Visibility: 19 mi

Pressure: 30.39 "Hg

Humidity: 68%

Dew point: 39 °F

Location of LandshutLocation

Historic Weather in Landshut — Graph

°F

Landshut temperature yesterday

Maximum temperature yesterday: 61 °F (at 6:00 PM)
Minimum temperature yesterday: 29 °F (at 6:00 AM)
Average temperature yesterday: 47 °F

Past Weeks' High & Low Weather Summary

 TemperatureHumidityPressure
High73 °F (Apr 15, 5:00 PM)98% (Apr 9, 4:00 AM)30.66 "Hg (Apr 9, 4:00 AM)
Low24 °F (Apr 7, 6:00 AM)23% (Apr 15, 6:00 PM)29.83 "Hg (Apr 17, 2:00 PM)
Average49 °F64%30.27 "Hg
* Reported Apr 6 9:00 AM — Apr 21 9:00 AM, Landshut, Weather by CustomWeather, © 2015

Note: Actual official high and low records may vary slightly from our data, if they occured in-between our weather recording intervals... More about our weather records

Advertising

Landshut weather history for previous 24 hours

 ConditionsComfort  
Time TempWeatherWind HumidityBarometerVisibility
9:00 AM
Tue, Apr 21
49 °FPassing clouds.1 mph68%30.39 "Hg19 mi
8:00 AM44 °FPassing clouds.2 mph80%30.39 "Hg19 mi
7:00 AM39 °FPassing clouds.1 mph84%30.39 "Hg19 mi
6:00 AM35 °FPassing clouds.1 mph91%30.39 "Hg19 mi
5:00 AM34 °FClear.1 mph92%30.38 "Hg25 mi
4:00 AM35 °FClear.2 mph91%30.38 "Hg28 mi
3:00 AM36 °FClear.2 mph90%30.37 "Hg28 mi
2:00 AM37 °FPassing clouds.2 mph89%30.36 "Hg28 mi
1:00 AM40 °FPassing clouds.2 mph84%30.35 "Hg31 mi
12:00 AM41 °FPassing clouds.1 mph81%30.34 "Hg31 mi
11:00 PM
Mon, Apr 20
46 °FPassing clouds.1 mph73%30.31 "Hg37 mi
10:00 PM53 °FPassing clouds.1 mph47%30.28 "Hg37 mi
9:00 PM58 °FPassing clouds.2 mph39%30.24 "Hg37 mi
8:00 PM58 °FPassing clouds.2 mph40%30.22 "Hg31 mi
7:00 PM60 °FPassing clouds.3 mph37%30.19 "Hg31 mi
6:00 PM61 °FPassing clouds.5 mph34%30.19 "Hg16 mi
5:00 PM61 °FPassing clouds.3 mph39%30.19 "Hg16 mi
4:00 PM60 °FPassing clouds.3 mph38%30.20 "Hg16 mi
3:00 PM59 °FPassing clouds.5 mph41%30.22 "Hg12 mi
2:00 PM57 °FPassing clouds.3 mph39%30.23 "Hg12 mi
1:00 PM56 °FPassing clouds.2 mph40%30.24 "Hg16 mi
12:00 PM54 °FScattered clouds.2 mph41%30.25 "Hg22 mi
11:00 AM52 °FScattered clouds.1 mph54%30.26 "Hg22 mi
10:00 AM50 °FScattered clouds.1 mph63%30.25 "Hg19 mi
9:00 AM46 °FPassing clouds.1 mph71%30.26 "Hg19 mi
Weather by CustomWeather, © 2015

See weather overviewHow to use our weather pages